Terminal Aerodrome Forecast
Issued by NWS

Home | Current Version | Previous Version | Text Only | Print | Product List | Glossary On
Versions: 1 2 3 4 5 6 7 8 9 10 11 12 13 14 15 16 17 18 19 20 21 22 23 24 25 26 27 28 29 30 31 32 33 34 35
000
FTAK31 PANC 031559 AAA
TAFATK
TAF AMD
PATK 031559Z 0316/0412 35005KT 3SM -SN OVC030
      TEMPO 0316/0318 6SM -SN OVC040
     FM032100 02005KT 2SM -SN BKN010 OVC020
     FM040400 03005KT P6SM VCSH SCT010 BKN025=

USA.gov is the U.S. government's official web portal to all federal, state and local government web resources and services.